Weather in Pesochnya

Russia / Bryansk Oblast     53°10′11″N   34°59′00″E
temp.,
°C
wind,
m/s
gust,
m/s
humid.,
%
clouds,
%
prec.,
mm/h
press.,
hPa
HPBL,
m
4 july, mon
mon400:00+17nw23795 0.0 101749
03:00+16nnw228284 0.0 101740
06:00+18nw238047 0.0 101772
09:00+23nw246166 0.0 1017351
12:00+28nnw2344100 0.0 10161560
15:00+29nw444086 0.0 10152160
18:00+23wnw23660 0.1 1015169
21:00+18wsw22852 0.1 101634
5 july, tue
tue500:00+17w00824 0.0 101611
03:00+16nw118529 0.1 101611
06:00+17s1181100 0.0 101620
09:00+23sw1260100 0.0 1017366
12:00+28ssw114723 0.0 10161260
15:00+29s32428 0.0 10152101
18:00+26wsw346298 0.1 1015614
21:00+20w118469 0.4 101611
6 july, wed
wed600:00+18ssw118529 0.1 101611
03:00+17sw119061 0.1 101614
06:00+18sw238778 0.0 101680
09:00+25ssw246172 0.0 1015489
12:00+28ssw3447100 0.0 10151655
15:00+27s355386 0.0 1014848
18:00+24se376925 0.4 1012190
21:00+22sse41373100 0.4 1012396
7 july, thu
thu700:00+18w2291100 0.6 101432
03:00+17wsw2397100 1.3 101451
06:00+17nnw2498100 0.5 1014262
09:00+17n2393100 1.1 1015406
12:00+23nne116739 0.1 1015823
15:00+27se125454 0.1 10141554
18:00+24n117350 1.2 1014255
21:00+19ne2495100 3.1 101584
8 july, fri
fri800:00+18ne2499100 2.9 1015105
03:00+17e1199100 4.1 101641
06:00+18se019873 0.1 1016107
09:00+21ssw128383 0.3 1016517
12:00+25sw2361100 0.0 10161195
15:00+23nw447090 0.4 1016837
18:00+22nw2270100 0.0 1016486
21:00+18nw2392100 0.0 101646